Date,TemperatureHighF,TemperatureAvgF,TemperatureLowF,DewpointHighF,DewpointAvgF,DewpointLowF,HumidityHigh,HumidityAvg,HumidityLow,PressureMaxIn,PressureMinIn,WindSpeedMaxMPH,WindSpeedAvgMPH,GustSpeedMaxMPH,PrecipitationSumIn
2013-1-1,39.4,17.5,2.5,27.5,9.9,-1.0,86,73,50,29.98,29.86,10,2,10,0.00
2013-1-2,41.0,25.6,6.4,28.8,16.6,-1.3,86,69,53,30.07,29.86,15,5,15,0.00
2013-1-3,43.5,22.8,9.5,26.1,11.6,-1.4,79,63,41,30.15,30.01,12,3,12,0.00
2013-1-4,49.1,20.7,6.4,24.6,6.9,-4.2,69,56,38,30.03,29.89,9,2,9,0.00
2013-1-5,50.7,26.2,12.6,27.1,13.7,4.5,72,61,39,30.07,29.86,20,5,20,0.00
2013-1-6,52.9,27.2,9.1,27.1,15.4,3.1,77,63,37,30.09,29.74,12,3,12,0.00
2013-1-7,51.1,28.1,15.6,30.9,16.5,9.7,80,64,37,29.83,29.71,9,2,9,0.00
2013-1-8,57.7,28.2,12.6,35.8,17.7,6.4,78,66,39,30.07,29.62,11,2,11,0.00
2013-1-9,60.3,34.9,16.7,32.9,22.4,11.9,82,64,34,30.15,29.98,14,3,14,0.00
2013-1-10,42.3,34.3,25.9,33.9,28.8,19.8,97,80,68,30.03,29.39,13,4,13,0.00
2013-1-11,38.1,28.7,11.7,35.6,26.7,7.2,98,92,82,29.74,29.21,19,5,19,0.00
2013-1-12,22.5,10.4,1.6,9.2,0.7,-11.1,82,66,46,30.03,29.74,17,6,17,0.00
2013-1-13,27.9,7.8,-2.6,10.0,-6.3,-14.8,67,52,44,30.18,30.03,13,3,13,0.00
2013-1-14,32.9,13.2,-3.5,15.9,-0.1,-17.1,77,55,44,30.30,29.98,11,2,11,0.00
2013-1-15,39.0,18.7,-2.2,16.7,6.6,-9.0,76,61,40,30.03,29.80,13,3,13,0.00
2013-1-16,52.9,36.5,26.1,30.6,22.2,16.2,72,58,36,30.12,29.80,17,5,17,0.00
2013-1-17,63.7,35.1,20.1,34.1,19.9,13.5,77,57,30,30.30,30.03,10,2,10,0.00
2013-1-18,67.1,37.5,21.4,33.0,18.2,10.8,72,49,24,30.03,29.77,12,3,13,0.00
2013-1-19,63.5,39.8,26.2,33.3,18.3,12.7,61,44,25,30.12,29.74,15,4,15,0.00
2013-1-20,43.9,26.0,17.6,27.9,14.6,6.2,77,62,47,30.18,29.98,15,3,15,0.00
2013-1-21,35.1,20.6,9.7,15.7,8.7,0.9,74,60,44,30.21,29.92,10,3,10,0.00
2013-1-22,53.4,26.5,16.5,29.4,15.2,10.6,80,64,39,30.01,29.89,13,3,13,0.00
2013-1-23,42.8,24.9,14.0,24.1,12.7,4.8,78,61,42,30.21,29.89,11,3,11,0.00
2013-1-24,31.3,18.1,7.0,15.5,7.0,-3.3,71,62,51,30.21,29.77,17,4,17,0.00
2013-1-25,65.1,36.0,0.0,33.9,20.4,12.8,79,56,27,30.03,29.89,9,2,11,0.00
2013-1-26,61.3,40.7,23.5,32.7,23.3,14.9,74,52,31,29.92,29.65,14,3,14,0.00
2013-1-27,57.2,40.2,28.6,55.1,38.5,26.7,98,94,56,29.68,29.47,8,1,8,0.21
2013-1-28,42.8,32.6,25.9,42.3,32.1,25.4,98,98,97,29.62,29.44,15,2,15,0.00
2013-1-29,36.1,30.3,25.0,35.6,29.3,24.5,98,96,91,29.68,29.56,17,5,17,0.04
2013-1-30,41.7,24.7,12.0,27.0,15.7,7.0,98,70,46,29.86,29.65,21,6,21,0.00
2013-1-31,23.4,18.7,13.8,15.2,5.7,-0.7,76,57,43,30.18,29.71,18,5,18,0.00
2013-2-1,57.9,34.9,15.4,32.6,20.3,3.1,75,57,36,30.12,29.89,12,3,12,0.00
2013-2-2,58.8,38.7,27.1,33.9,22.6,15.8,83,57,27,30.12,30.01,26,6,26,0.00
2013-2-3,59.0,36.1,18.1,31.7,19.3,12.0,79,54,29,30.07,29.74,12,2,12,0.00
2013-2-4,64.4,39.8,23.0,32.7,20.2,12.0,73,48,26,29.89,29.65,13,3,13,0.00
2013-2-5,67.1,41.6,25.3,34.9,21.3,13.4,67,46,26,29.83,29.65,10,3,10,0.00
2013-2-6,67.1,45.4,34.0,36.2,25.0,19.9,60,46,30,29.83,29.68,13,3,13,0.00
2013-2-7,65.1,40.2,23.7,35.2,20.5,8.3,78,49,25,30.09,29.83,8,3,8,0.00
2013-2-8,58.1,38.3,21.0,29.9,20.1,9.7,77,51,30,30.01,29.77,32,7,32,0.00
2013-2-9,58.1,39.5,23.0,40.7,26.0,17.6,98,63,29,29.80,29.24,17,6,17,0.21
2013-2-10,39.6,29.6,23.9,39.0,27.6,19.8,98,92,80,29.92,29.21,32,11,32,0.12
2013-2-11,46.0,25.1,12.6,35.8,17.3,8.9,87,73,45,30.07,29.92,17,5,17,0.00
2013-2-12,48.6,27.1,12.9,24.1,14.8,7.7,83,62,38,29.95,29.86,15,3,15,0.04
2013-2-13,54.3,36.1,22.3,28.8,21.2,13.7,72,56,36,29.89,29.68,17,6,17,0.00
2013-2-14,40.6,31.6,23.4,28.5,20.5,13.5,80,64,42,30.21,29.80,25,6,25,0.00
2013-2-15,38.1,24.1,14.9,21.6,11.4,4.0,77,60,39,30.21,30.07,16,4,16,0.00
2013-2-16,60.4,37.2,17.1,32.3,20.9,6.6,73,54,33,30.09,29.80,20,4,20,0.00
2013-2-17,58.3,38.0,20.3,34.6,22.3,15.1,81,57,30,29.83,29.42,18,2,18,0.00
2013-2-18,43.0,34.4,22.5,25.2,18.0,9.7,66,52,37,30.03,29.53,28,10,28,0.00
2013-2-19,46.4,26.7,15.3,21.8,10.1,0.2,66,50,36,30.12,29.95,15,5,15,0.00
2013-2-20,23.5,18.1,11.3,19.0,7.1,-5.1,91,63,44,30.12,29.83,18,7,18,0.00
2013-2-21,22.6,17.6,12.6,16.3,13.4,7.6,93,84,73,29.95,29.77,16,5,16,0.00
2013-2-22,42.6,18.2,3.2,35.6,13.5,-1.6,97,82,59,29.95,29.71,10,2,10,0.00
2013-2-23,52.7,22.8,0.9,45.1,19.1,-0.2,96,87,64,29.80,29.50,8,1,8,0.00
2013-2-24,39.2,28.7,15.6,29.8,22.6,14.4,96,79,56,29.92,29.65,13,3,13,0.04
2013-2-25,47.1,31.7,15.8,28.5,22.5,10.5,88,71,44,29.98,29.80,10,3,10,0.00
2013-2-26,48.0,26.1,7.2,27.4,14.1,2.8,82,63,37,29.92,29.74,7,2,7,0.00
2013-2-27,35.6,30.6,23.7,26.7,20.7,16.9,77,67,56,30.07,29.89,19,7,22,0.00
2013-2-28,54.7,31.7,18.7,30.7,20.5,14.1,83,65,38,30.12,30.01,8,2,8,0.00
2013-3-1,47.7,33.3,23.5,35.9,24.0,18.9,86,70,45,30.15,30.03,13,3,13,0.00
2013-3-2,67.6,42.2,21.7,42.3,29.1,17.4,86,63,34,30.15,29.86,14,2,14,0.00
2013-3-3,70.0,48.1,29.8,45.5,31.4,24.6,85,57,30,29.86,29.44,13,2,13,0.00
2013-3-4,55.0,37.5,22.8,31.1,18.1,3.5,74,48,28,30.09,29.44,25,8,25,0.00
2013-3-5,46.0,28.9,18.1,17.9,10.0,6.5,61,46,30,30.27,30.09,21,6,21,0.00
2013-3-6,45.7,30.0,15.4,23.3,15.8,6.4,72,56,38,30.21,29.89,23,6,23,0.00
2013-3-7,61.7,38.4,23.7,33.0,24.2,18.3,80,60,34,29.95,29.80,11,3,11,0.00
2013-3-8,57.2,41.3,26.1,42.2,29.7,18.9,83,65,39,29.92,29.53,7,1,7,0.00
2013-3-9,50.2,37.6,29.7,47.7,35.1,25.4,98,91,81,29.83,29.39,15,6,15,0.00
2013-3-10,32.5,25.1,18.5,29.9,15.6,10.0,98,68,47,30.07,29.83,24,10,24,0.00
2013-3-11,61.0,34.8,15.8,33.5,19.4,9.0,76,56,33,30.01,29.68,13,5,13,0.00
2013-3-12,48.4,35.4,23.5,21.5,14.6,4.7,62,44,27,30.24,29.92,22,6,22,0.00
2013-3-13,74.3,43.6,19.4,37.5,20.7,6.8,63,43,24,30.21,29.92,13,2,13,0.00
2013-3-14,85.3,55.5,37.4,41.6,30.0,21.8,65,42,18,30.07,29.92,14,2,14,0.00
2013-3-15,87.3,56.6,36.3,43.4,30.1,23.9,67,41,14,29.92,29.65,15,4,15,0.00
2013-3-16,47.8,38.1,30.9,30.2,22.6,16.8,70,54,39,30.03,29.83,12,5,12,0.00
2013-3-17,38.1,32.6,27.7,35.5,25.8,16.5,98,77,52,29.98,29.50,20,6,20,0.04
2013-3-18,34.5,26.5,24.6,34.0,26.0,24.0,98,98,97,29.95,29.65,26,6,26,0.00
2013-3-19,25.7,22.6,0.0,25.2,25.2,25.2,98,86,98,30.18,29.92,23,5,23,0.00
2013-3-20,47.3,9.6,0.0,25.2,22.6,12.6,40,7,28,30.36,29.92,18,4,18,0.00
2013-3-21,55.8,39.2,28.2,25.6,18.2,11.8,76,44,29,29.95,29.65,17,7,17,0.00
2013-3-22,32.2,32.0,32.0,25.6,25.6,25.1,77,77,76,29.86,29.71,14,5,14,0.00
2013-3-23,32.0,32.0,32.0,25.6,25.6,25.6,77,77,77,29.98,29.80,17,6,17,0.00
2013-3-24,32.0,11.6,0.0,25.6,25.6,25.6,77,28,77,30.12,29.95,20,6,20,0.05
2013-3-25,0.0,0.0,0.0,25.6,25.6,25.6,0,0,100,30.27,30.09,20,6,20,0.00
2013-3-26,0.0,0.0,0.0,25.6,25.6,25.6,0,0,100,30.27,29.92,21,3,21,0.00
2013-3-27,0.0,0.0,0.0,25.6,25.6,25.6,0,0,100,30.09,29.95,6,2,8,0.00
2013-3-28,74.1,31.9,0.0,32.9,27.0,0.0,44,15,22,30.09,27.41,16,4,16,0.00
2013-3-29,76.3,53.2,34.2,43.0,31.8,22.0,67,46,28,30.03,29.77,21,5,21,0.04
2013-3-30,0.0,0.0,0.0,43.0,43.0,43.0,0,0,100,29.80,29.80,3,2,3,0.37
2013-3-31,0.0,0.0,0.0,43.0,43.0,43.0,0,0,100,29.80,29.80,2,2,3,0.37
2013-4-1,50.0,43.2,0.0,25.7,23.8,0.0,69,47,38,30.18,30.03,11,4,11,0.00
2013-4-2,65.7,50.9,37.2,32.9,25.6,20.8,55,38,26,30.12,30.07,14,3,14,0.00
2013-4-3,63.9,45.5,30.4,33.9,25.4,21.5,71,49,25,30.15,30.03,24,5,24,0.00
2013-4-4,42.8,39.1,28.6,32.3,28.1,21.7,75,64,58,30.09,29.92,12,3,12,0.00
2013-4-5,74.7,43.6,36.9,31.9,29.0,24.9,75,61,21,29.98,29.53,22,5,22,0.00
2013-4-6,61.2,55.4,0.0,40.4,36.3,28.9,65,48,36,29.74,29.56,26,6,26,0.00
2013-4-7,75.0,58.8,48.6,61.2,42.1,37.7,98,55,34,29.74,29.42,13,2,13,0.08
2013-4-8,79.7,55.5,33.3,49.1,40.9,32.8,98,66,22,29.56,29.42,22,5,22,0.25
2013-4-9,33.4,21.8,17.6,32.9,21.0,16.6,98,97,93,30.09,29.47,28,2,28,0.46
2013-4-10,28.0,23.0,18.9,26.9,22.2,18.2,98,97,93,30.07,29.86,17,3,17,0.00
2013-4-11,36.5,28.2,0.0,33.1,27.1,19.6,98,95,89,29.86,29.65,16,6,16,0.04
2013-4-12,53.1,37.3,27.0,41.4,31.8,26.5,98,82,47,29.83,29.77,15,4,15,0.08
2013-4-13,68.2,47.1,25.0,44.9,35.7,22.7,92,68,40,29.86,29.24,17,5,24,0.00
2013-4-14,59.0,48.9,37.2,46.7,31.9,16.1,91,56,28,29.68,29.18,31,10,31,0.00
2013-4-15,50.7,37.2,29.1,26.4,19.2,13.9,62,49,36,30.03,29.62,17,5,17,0.00
2013-4-16,42.1,35.7,0.0,31.4,26.6,18.8,79,69,50,30.09,29.92,15,4,15,0.13
2013-4-17,38.1,30.7,26.6,30.8,27.7,24.1,96,89,73,30.01,29.86,20,8,20,0.00
2013-4-18,36.0,29.1,25.0,25.1,20.4,14.5,94,72,47,30.01,29.89,26,10,26,0.04
2013-4-19,55.8,38.9,22.6,30.7,23.6,16.3,77,56,37,29.98,29.89,18,6,18,0.00
2013-4-20,62.4,44.2,29.8,33.7,27.3,22.6,75,53,33,29.98,29.86,18,5,18,0.00
2013-4-21,77.7,51.3,35.6,46.1,36.2,27.6,89,61,28,29.92,29.83,15,4,15,0.00
2013-4-22,43.7,34.8,28.6,40.7,32.0,23.2,98,90,80,30.21,29.80,18,7,18,0.04
2013-4-23,46.8,32.9,23.7,29.1,19.4,9.7,81,60,34,30.21,30.09,14,5,14,0.00
2013-4-24,63.5,39.1,17.6,31.6,18.3,8.7,70,47,24,30.12,30.03,23,5,23,0.00
2013-4-25,80.1,52.1,24.8,35.1,26.0,16.1,76,42,20,30.12,29.74,24,4,24,0.00
2013-4-26,80.8,59.6,37.0,39.9,23.5,15.0,56,29,10,30.09,29.86,17,4,17,0.00
2013-4-27,89.8,63.5,35.6,43.1,28.4,12.0,62,32,10,30.09,29.80,15,3,15,0.00
2013-4-28,94.5,66.5,41.4,42.6,31.8,17.5,68,34,7,29.80,29.65,17,5,17,0.00
2013-4-29,89.2,69.1,49.8,44.0,35.8,28.2,50,31,18,29.77,29.33,19,5,19,0.00
2013-4-30,70.7,58.2,45.0,41.5,32.4,20.1,66,40,23,29.92,29.33,19,5,19,0.00
2013-5-1,43.7,34.4,32.2,37.7,33.4,31.7,98,96,71,30.39,29.86,16,6,17,0.45
2013-5-2,60.6,42.9,31.6,49.5,32.2,22.8,98,71,32,30.51,30.30,12,4,12,0.13
2013-5-3,64.4,45.8,26.2,40.7,24.6,13.7,80,48,24,30.30,30.03,15,3,15,0.00
2013-5-4,62.4,43.8,26.2,26.7,18.3,11.7,55,37,24,30.18,30.03,16,5,16,0.00
2013-5-5,72.1,49.2,26.2,33.1,20.7,13.5,59,36,15,30.18,30.03,12,2,12,0.00
2013-5-6,80.2,58.7,37.4,45.4,31.4,21.6,65,39,20,30.03,29.86,17,3,17,0.00
2013-5-7,74.1,60.0,49.8,52.9,43.7,30.7,79,56,36,29.92,29.71,20,6,20,0.00
2013-5-8,77.5,61.9,48.0,72.0,50.8,40.4,98,72,32,29.83,29.68,17,4,17,0.41
2013-5-9,66.9,56.7,48.2,52.8,45.3,39.8,88,67,46,29.95,29.80,13,5,13,0.00
2013-5-10,80.6,58.6,0.0,59.5,48.9,37.0,88,72,35,30.01,29.89,17,2,17,0.21
2013-5-11,72.5,59.7,0.0,55.7,46.3,26.2,86,67,24,30.27,29.92,15,1,15,0.21
2013-5-12,82.8,60.8,41.5,46.9,35.6,26.4,60,41,23,30.15,29.89,10,3,10,0.00
2013-5-13,99.0,72.8,48.7,54.7,44.2,37.0,75,42,16,29.92,29.71,11,2,11,0.00
2013-5-14,100.9,78.4,55.4,52.6,41.9,31.2,56,32,10,29.71,29.56,14,4,14,0.00
2013-5-15,84.9,70.4,61.0,40.5,36.9,34.1,39,30,20,29.80,29.65,19,6,19,0.00
2013-5-16,86.9,63.2,56.1,64.7,47.8,34.0,85,59,36,29.77,29.56,20,3,20,0.05
2013-5-17,90.5,71.1,50.5,63.1,53.5,46.7,89,59,28,29.71,29.56,22,4,22,0.00
2013-5-18,83.5,71.2,59.0,68.0,60.6,48.7,83,70,54,29.65,29.44,33,6,33,0.00
2013-5-19,71.2,59.2,54.3,67.4,55.3,51.0,98,87,67,29.59,29.44,20,4,20,0.24
2013-5-20,68.7,57.3,51.6,60.2,50.6,42.7,98,80,45,29.62,29.47,26,8,26,0.17
2013-5-21,64.6,54.3,47.5,48.0,42.5,39.3,89,66,44,29.77,29.59,26,8,26,0.00
2013-5-22,76.3,58.1,47.8,49.9,44.6,40.3,80,63,38,29.92,29.71,14,5,14,0.00
2013-5-23,71.1,59.1,45.1,48.6,45.1,39.7,83,62,43,30.03,29.92,17,5,17,0.00
2013-5-24,79.3,64.0,55.8,60.6,53.9,45.3,89,71,47,29.95,29.71,24,8,24,0.04
2013-5-25,90.9,73.1,58.6,64.4,57.7,47.8,89,61,37,29.83,29.56,15,5,15,0.04
2013-5-26,89.2,75.6,63.5,66.9,61.4,47.2,86,63,40,29.66,29.50,14,4,14,0.00
2013-5-27,74.8,65.5,0.0,69.5,61.8,52.6,98,87,72,29.81,29.60,16,4,16,0.33
2013-5-28,83.1,66.6,0.0,75.1,59.3,51.4,98,79,46,29.81,29.55,17,3,17,0.00
2013-5-29,82.9,62.2,55.2,67.1,56.3,50.7,98,82,58,29.69,29.31,22,4,22,0.25
2013-5-30,82.2,64.6,50.5,71.0,52.0,37.2,98,70,25,29.66,29.49,22,4,22,0.04
2013-5-31,75.9,61.8,48.0,52.2,41.6,38.1,75,50,30,29.84,29.66,27,8,27,0.00
2013-6-1,70.2,57.0,47.5,46.3,42.8,36.0,76,60,40,30.17,29.84,26,8,26,0.00
2013-6-2,78.6,60.4,37.8,51.2,42.1,32.1,82,54,32,30.20,29.90,13,3,13,0.00
2013-6-3,88.0,68.8,53.8,63.3,50.0,41.5,98,54,31,29.93,29.60,22,8,22,0.13
2013-6-4,79.7,67.0,57.6,64.7,53.9,46.1,98,68,35,30.05,29.72,11,4,11,0.00
2013-6-5,75.0,58.7,48.6,61.1,47.1,40.1,88,68,41,30.17,30.02,13,4,13,0.00
2013-6-6,81.0,61.8,41.9,54.5,45.3,37.1,86,58,35,30.11,29.96,8,2,8,0.00
2013-6-7,88.0,67.7,45.3,55.9,47.4,39.2,82,52,29,30.08,29.75,16,2,16,0.00
2013-6-8,77.9,63.8,56.5,69.0,57.2,50.2,93,80,55,29.87,29.66,13,4,13,0.12
2013-6-9,86.4,68.2,51.3,61.2,50.5,46.0,92,59,29,29.96,29.84,14,4,14,0.00
2013-6-10,100.8,76.5,50.5,63.6,53.6,44.6,81,50,25,29.87,29.69,17,3,17,0.00
2013-6-11,97.0,82.1,64.8,65.1,60.5,53.8,69,50,29,29.75,29.58,19,4,19,0.00
2013-6-12,91.4,74.3,58.8,64.5,56.8,48.4,80,57,31,30.08,29.64,15,4,15,0.00
2013-6-13,85.1,68.9,50.9,57.3,51.9,45.6,83,58,33,30.14,29.87,14,4,14,0.00
2013-6-14,97.7,80.5,67.6,67.1,58.4,47.7,69,48,29,29.93,29.72,28,5,28,0.00
2013-6-15,88.9,75.4,62.8,61.9,58.7,54.4,81,58,40,29.96,29.81,15,4,15,0.00
2013-6-16,93.7,72.4,61.0,67.0,57.9,52.0,84,63,28,30.02,29.84,22,4,22,0.00
2013-6-17,89.4,71.0,51.8,63.8,53.8,47.4,88,58,32,30.08,29.96,11,2,11,0.00
2013-6-18,89.8,73.1,57.7,75.8,61.6,51.4,98,71,36,30.08,29.87,23,4,23,0.09
2013-6-19,90.9,76.2,59.5,65.5,58.3,54.0,82,56,33,29.93,29.72,26,6,26,0.00
2013-6-20,95.9,78.8,66.9,70.5,63.3,57.7,84,61,37,29.78,29.69,14,4,14,0.00
2013-6-21,103.1,82.0,0.0,66.0,58.8,49.3,98,48,28,29.78,29.64,27,6,27,0.37
2013-6-22,87.1,73.1,61.7,68.9,64.5,57.6,98,76,52,29.90,29.66,30,5,30,0.08
2013-6-23,86.7,71.3,0.0,75.1,63.9,57.0,98,79,47,29.93,29.75,15,3,15,0.17
2013-6-24,91.8,74.7,60.4,81.1,67.9,58.4,98,81,52,29.96,29.66,17,3,17,0.09
2013-6-25,95.0,77.9,65.8,74.7,62.0,51.4,89,63,27,29.81,29.66,15,3,15,0.00
2013-6-26,101.3,79.5,59.4,68.7,61.2,54.5,86,58,27,29.96,29.81,10,1,10,0.00
2013-6-27,90.1,78.4,66.2,71.0,63.3,57.5,84,62,37,30.08,29.90,15,3,15,0.00
2013-6-28,92.3,77.7,64.2,65.8,57.5,50.9,85,54,29,30.14,30.02,11,2,11,0.00
2013-6-29,88.2,73.1,58.6,63.4,52.7,44.6,76,51,32,30.08,30.02,11,2,11,0.00
2013-6-30,88.2,70.6,54.1,61.2,50.9,46.3,78,53,30,30.17,30.08,10,2,10,0.00
2013-7-1,85.6,68.5,52.0,59.2,48.7,41.9,82,53,30,30.25,30.14,8,2,8,0.00
2013-7-2,89.1,69.1,48.6,57.5,47.1,42.0,81,50,25,30.28,30.08,10,2,10,0.00
2013-7-3,95.7,73.1,54.0,57.2,47.2,38.8,72,45,18,30.08,29.90,10,2,10,0.00
2013-7-4,98.1,77.7,61.5,55.3,47.6,41.1,57,37,18,29.96,29.81,14,4,14,0.00
2013-7-5,97.0,79.6,64.4,58.6,52.0,44.9,58,39,25,29.87,29.69,14,4,14,0.00
2013-7-6,102.7,83.9,69.1,63.7,58.0,52.9,62,43,26,29.78,29.69,12,3,12,0.00
2013-7-7,98.6,80.9,66.4,69.0,63.7,58.1,87,59,34,29.96,29.78,16,3,16,0.00
2013-7-8,99.3,80.5,64.6,81.7,67.7,62.8,98,70,33,30.02,29.84,10,2,10,0.04
2013-7-9,104.4,83.1,65.7,71.6,65.1,60.8,88,59,28,30.08,29.87,11,3,11,0.00
2013-7-10,89.4,74.8,63.7,69.1,61.6,56.5,79,64,44,30.17,29.96,11,3,11,0.00
2013-7-11,96.8,80.5,65.1,70.5,64.1,59.5,88,61,34,30.02,29.84,15,4,15,0.00
2013-7-12,106.3,85.7,70.5,68.6,63.1,55.8,74,51,25,29.90,29.75,16,4,16,0.00
2013-7-13,108.0,87.9,70.5,71.3,63.6,58.1,72,47,24,29.93,29.78,11,3,11,0.00
2013-7-14,91.2,77.6,70.7,71.7,65.9,60.0,82,68,52,30.11,29.81,17,3,17,0.00
2013-7-15,91.0,77.4,64.0,71.8,59.1,47.2,90,58,29,30.17,30.05,16,4,16,0.00
2013-7-16,87.6,74.3,64.0,63.4,58.5,52.5,81,60,39,30.23,30.11,20,6,20,0.00
2013-7-17,93.9,78.0,62.1,65.3,58.7,54.1,83,55,33,30.28,30.08,23,6,23,0.00
2013-7-18,98.6,82.8,67.3,67.4,59.8,55.9,79,49,28,30.14,29.87,17,6,17,0.00
2013-7-19,98.8,81.6,68.4,67.6,56.5,49.3,71,45,22,30.05,29.93,18,4,18,0.00
2013-7-20,95.7,76.1,60.3,65.7,59.5,52.3,98,59,34,29.99,29.81,14,3,14,0.33
2013-7-21,96.6,76.6,58.6,81.0,63.7,55.4,98,71,32,29.96,29.75,14,4,14,0.08
2013-7-22,95.9,79.4,63.5,68.3,62.2,56.6,90,59,36,29.93,29.78,11,3,11,0.12
2013-7-23,97.0,75.9,0.0,65.6,58.6,53.1,78,57,27,30.02,29.81,24,4,24,0.00
2013-7-24,97.7,75.5,59.7,67.8,60.2,51.4,88,62,30,30.14,29.96,10,2,10,0.00
2013-7-25,90.1,73.1,64.4,70.9,61.1,50.6,98,69,44,30.08,29.96,20,4,20,0.00
2013-7-26,81.7,68.0,0.0,74.9,59.5,51.5,98,77,43,30.25,30.05,11,3,11,0.00
2013-7-27,69.3,61.4,56.5,56.7,53.0,50.7,87,74,64,30.14,30.02,13,3,13,0.00
2013-7-28,68.4,60.7,56.7,56.8,54.5,51.6,93,80,65,30.08,29.96,10,3,10,0.00
2013-7-29,77.4,65.2,58.1,70.6,62.3,56.6,97,91,71,30.05,29.93,7,2,7,0.00
2013-7-30,91.6,71.3,58.8,73.1,63.5,56.4,98,80,42,30.14,29.99,30,3,30,0.00
2013-7-31,91.9,74.4,60.4,80.6,67.5,59.9,98,81,54,30.20,30.08,9,2,10,0.00
2013-8-1,92.1,76.1,63.7,72.5,65.6,60.7,98,73,43,30.14,26.84,17,3,17,0.41
2013-8-2,92.3,73.2,61.0,79.7,67.2,60.4,98,83,57,30.23,29.99,13,3,13,0.00
2013-8-3,80.2,69.9,65.7,66.7,63.8,61.4,93,82,61,30.31,30.14,14,4,16,0.00
2013-8-4,84.7,71.3,62.2,70.9,64.7,60.0,93,81,62,30.22,30.05,13,4,13,0.00
2013-8-5,95.0,77.1,0.0,75.3,67.9,56.8,93,74,46,30.05,29.93,20,3,20,0.00
2013-8-6,95.7,77.1,62.1,73.4,66.1,58.6,92,71,45,30.05,29.90,13,3,13,0.00
2013-8-7,87.8,73.9,60.1,66.8,60.9,56.8,90,66,44,30.14,30.05,9,2,10,0.00
2013-8-8,90.3,72.6,62.4,65.8,58.5,50.1,81,63,38,30.16,30.05,14,2,14,0.00
2013-8-9,91.8,71.4,54.0,66.0,57.9,51.1,98,67,36,30.25,30.10,10,2,10,0.29
2013-8-10,90.7,72.9,57.9,79.9,61.2,52.6,98,72,33,30.28,30.14,17,4,17,0.00
2013-8-11,96.4,74.9,64.0,72.2,63.4,57.2,86,69,42,30.16,30.05,10,3,10,0.00
2013-8-12,94.5,74.0,59.5,71.3,63.0,57.5,94,72,41,30.19,30.08,8,2,8,0.00
2013-8-13,86.9,70.8,62.8,66.6,60.9,57.4,91,73,43,30.22,30.10,12,3,12,0.00
2013-8-14,89.8,71.6,62.6,70.5,61.7,58.9,89,73,44,30.19,30.05,12,3,12,0.00
2013-8-15,91.2,70.7,58.5,80.6,63.7,56.6,98,81,42,30.16,30.02,13,2,13,0.09
2013-8-16,87.1,71.7,61.9,68.8,63.0,59.0,92,76,47,30.19,30.10,10,3,10,0.00
2013-8-17,79.7,70.2,62.6,67.2,63.7,60.1,92,81,64,30.16,30.05,13,4,13,0.00
2013-8-18,86.0,71.8,62.2,69.0,63.2,59.9,93,76,51,30.14,30.02,14,4,14,0.00
2013-8-19,69.1,68.4,67.8,62.5,62.1,61.8,82,80,79,30.08,30.05,13,6,13,0.00
2013-8-27,120.2,92.5,0.0,65.4,54.6,0.0,68,31,11,30.08,29.99,13,2,13,0.00
2013-8-28,115.7,81.7,62.1,64.2,55.3,47.5,73,45,13,30.14,30.05,11,2,11,0.00
2013-8-29,117.5,83.4,61.3,69.1,59.8,45.9,87,53,12,30.10,30.02,10,1,10,0.00
2013-8-30,116.6,83.1,66.2,70.7,62.8,52.6,98,59,14,30.16,29.99,24,3,24,0.41
2013-8-31,114.8,79.2,0.0,80.0,67.3,58.1,98,75,21,30.16,29.93,10,2,10,0.37
2013-9-1,102.2,73.9,57.2,69.3,54.7,40.7,98,58,18,30.22,30.02,12,2,12,0.00
2013-9-2,105.3,72.6,51.8,60.9,52.9,45.7,88,57,17,30.22,23.76,13,2,13,0.00
2013-9-3,109.6,79.8,61.0,60.1,53.5,47.9,74,45,16,30.16,30.02,19,4,19,0.00
2013-9-4,117.1,81.1,0.0,62.0,54.3,45.1,67,43,13,30.19,30.05,13,4,13,0.00
2013-9-5,109.4,84.2,68.2,62.2,54.5,44.0,67,40,14,30.22,30.08,17,3,17,0.00
2013-9-6,122.9,86.6,63.3,58.2,50.3,33.1,64,35,8,30.16,29.93,12,3,12,0.00
2013-9-7,117.3,83.8,61.2,65.6,54.0,38.8,70,41,13,30.10,29.99,10,2,10,0.00
2013-9-8,116.1,84.1,67.6,72.7,55.9,32.8,89,51,8,30.05,29.87,14,4,14,0.00
2013-9-9,113.5,82.9,65.7,65.5,54.1,43.4,95,42,14,30.02,29.87,13,4,13,0.21
2013-9-10,104.9,74.7,62.6,65.6,59.2,51.5,96,64,25,30.19,29.96,13,3,13,0.00
2013-9-11,82.4,68.4,61.2,66.9,61.8,56.1,98,81,53,30.25,30.16,8,2,8,0.29
2013-9-12,96.3,71.0,59.4,76.5,60.1,50.4,98,74,28,30.34,30.25,12,3,12,0.00
2013-9-13,74.5,62.6,57.2,60.3,51.4,46.8,82,68,47,30.28,30.10,13,4,13,0.00
2013-9-14,91.2,68.7,59.5,64.0,56.2,50.3,81,65,41,30.10,29.90,19,6,19,0.00
2013-9-15,70.3,62.8,58.5,64.1,57.7,51.9,98,85,60,30.34,29.96,12,4,12,0.37
2013-9-16,61.2,57.4,55.0,56.1,52.8,51.2,93,85,78,30.37,30.19,10,4,10,0.00
2013-9-17,99.1,68.9,55.2,70.3,59.5,53.2,96,76,31,30.22,29.84,14,5,14,0.00
2013-9-18,108.9,75.8,57.7,69.5,61.4,52.9,95,66,24,29.87,29.72,24,3,24,0.00
2013-9-19,80.1,60.7,46.9,61.7,52.3,40.5,98,76,36,30.22,29.81,14,3,19,0.09
2013-9-20,93.4,59.1,38.7,53.7,44.0,36.8,93,63,24,30.28,30.05,8,1,8,0.00
2013-9-21,101.8,67.5,44.2,57.3,46.3,40.1,88,54,17,30.10,29.84,13,3,13,0.00
2013-9-22,97.3,71.3,54.1,55.1,49.3,44.7,74,49,21,29.84,29.69,28,6,28,0.00
2013-9-23,78.6,62.3,57.0,60.4,48.3,44.9,77,61,42,29.90,29.66,21,6,21,0.00
2013-9-24,97.7,63.6,46.9,53.9,43.8,31.0,94,57,17,30.14,29.90,14,4,14,0.00
2013-9-25,91.6,65.9,45.9,54.0,47.2,39.2,84,56,24,30.02,29.63,26,6,26,0.00
2013-9-26,101.1,71.7,54.9,57.9,48.6,40.8,70,47,18,29.81,29.63,19,4,20,0.00
2013-9-27,70.2,55.4,46.8,54.3,48.5,44.3,98,80,47,29.99,29.72,17,3,17,0.54
2013-9-28,83.3,54.2,38.8,57.4,41.4,30.7,98,70,22,30.14,29.96,16,4,16,0.00
2013-9-29,98.4,61.5,37.8,51.7,38.7,30.6,87,51,16,30.16,29.87,17,4,23,0.00
2013-9-30,101.5,68.6,45.0,53.8,42.4,32.2,77,44,13,29.90,29.81,14,3,14,0.00
2013-10-1,93.6,63.5,43.5,46.3,38.2,29.4,72,44,17,30.16,29.84,13,2,13,0.00
2013-10-2,100.2,65.5,45.5,61.5,45.6,34.9,78,52,26,30.05,29.90,10,2,10,0.00
2013-10-3,57.9,53.9,50.9,54.7,47.6,38.1,98,81,48,29.93,29.87,12,3,12,0.00
2013-10-5,44.1,41.4,37.9,29.9,27.2,24.6,70,57,48,30.22,30.14,26,11,26,0.04
2013-10-6,77.7,49.8,32.5,36.7,28.9,21.0,77,49,21,30.25,30.16,20,6,20,0.00
2013-10-7,99.7,58.6,31.5,47.6,34.7,24.7,84,48,11,30.25,29.99,20,2,20,0.00
2013-10-8,94.8,62.9,41.4,45.5,36.0,27.9,72,40,15,30.02,29.84,14,4,14,0.00
2013-10-9,93.2,61.4,43.2,51.9,39.1,31.1,73,47,18,29.96,29.90,13,3,13,0.00
2013-10-10,90.0,62.0,43.0,56.8,45.1,36.1,98,59,24,29.96,29.63,27,4,27,0.41
2013-10-11,66.0,54.1,41.9,55.0,41.7,30.1,98,66,37,30.10,29.57,26,8,26,0.00
2013-10-12,71.6,48.5,34.0,43.6,34.1,29.4,85,60,33,30.31,30.10,9,2,9,0.00
2013-10-13,41.5,39.2,37.0,34.5,32.5,30.5,80,77,73,30.37,30.31,5,1,5,0.00
2013-10-14,69.8,52.3,42.6,66.4,50.2,35.3,98,93,73,30.10,29.66,19,8,19,0.67
2013-10-15,49.1,41.3,32.5,35.6,30.1,25.8,77,65,49,30.34,30.08,24,8,24,0.00
2013-10-16,66.7,39.0,26.4,41.8,29.0,23.7,91,70,37,30.34,30.05,9,2,9,0.00
2013-10-17,61.0,39.5,28.2,36.2,27.4,21.0,86,65,36,30.25,30.08,16,4,16,0.00
2013-10-18,57.6,38.8,29.3,36.5,26.6,20.9,79,63,39,30.28,30.19,13,2,13,0.00
2013-10-19,76.6,47.1,28.2,36.8,28.0,21.9,80,52,22,30.19,29.96,14,3,14,0.00
2013-10-20,66.7,46.3,30.9,39.6,30.9,23.6,74,56,35,30.22,29.93,14,2,14,0.00
2013-10-21,70.2,46.1,29.8,50.3,34.6,23.5,96,68,32,30.22,30.08,17,3,17,0.00
2013-10-22,69.4,50.9,39.6,42.2,35.4,26.9,75,57,34,30.19,30.08,15,3,15,0.00
2013-10-23,73.0,49.4,32.7,46.1,33.6,28.1,85,58,27,30.34,30.14,17,2,17,0.00
2013-10-24,50.2,43.5,38.7,36.3,32.6,29.8,77,66,58,30.49,30.34,11,3,11,0.00
2013-10-25,77.9,46.1,30.2,44.0,33.0,26.8,88,64,30,30.43,30.10,18,3,18,0.00
2013-10-26,80.1,47.2,33.8,40.0,30.3,20.8,82,57,22,30.40,30.19,10,2,10,0.00
2013-10-27,90.0,51.1,31.1,44.8,31.4,23.7,77,54,15,30.22,29.90,10,2,10,0.00
2013-10-30,65.1,42.8,29.5,51.7,39.4,29.0,98,89,54,30.05,29.87,0,0,0,0.00
2013-10-31,66.2,42.9,27.3,48.3,30.3,22.9,98,69,25,29.93,29.81,0,0,0,0.00
2013-11-1,62.1,45.9,34.2,36.5,27.1,15.9,77,50,26,30.34,29.90,0,0,0,0.00
2013-11-2,72.7,43.1,22.8,35.5,22.5,14.9,74,47,22,30.40,30.08,17,3,17,0.00
2013-11-3,75.2,45.3,35.4,42.8,28.2,22.9,69,52,32,30.08,29.72,20,3,20,0.00
2013-11-4,59.2,44.1,35.8,34.5,28.8,22.1,77,57,35,30.22,29.84,13,3,13,0.00
2013-11-5,36.7,33.5,29.5,33.7,30.4,23.6,98,89,60,30.31,30.16,12,3,12,0.16
2013-11-6,57.7,31.9,20.8,49.9,30.5,20.4,98,95,73,30.49,30.28,10,2,10,0.17
2013-11-7,66.9,39.3,22.6,49.6,33.6,22.2,98,82,38,30.58,30.25,10,2,10,0.00
2013-11-8,72.1,46.2,31.1,40.7,31.1,24.0,88,60,24,30.25,29.87,28,4,28,0.00
2013-11-9,72.9,45.9,30.9,38.5,28.3,20.9,79,53,26,30.46,30.16,7,2,7,0.00
2013-11-10,68.9,40.9,24.3,45.5,30.8,18.7,85,69,41,30.46,30.22,15,2,15,0.00
2013-11-11,35.8,29.9,20.7,32.0,22.6,11.1,91,75,59,30.87,30.22,14,4,14,0.00
2013-11-12,58.5,30.5,11.5,32.6,19.0,5.5,82,64,36,30.93,30.52,12,3,12,0.00
2013-11-13,79.2,42.3,21.4,42.3,27.7,17.3,86,61,26,30.55,30.08,10,1,10,0.00
2013-11-14,73.9,45.7,31.5,41.6,30.0,20.7,73,57,28,30.19,30.02,10,2,10,0.00
2013-11-15,70.2,44.8,32.2,40.0,30.7,24.4,79,61,31,30.02,29.60,21,4,21,0.00
2013-11-16,66.9,43.5,31.1,34.1,26.5,20.1,82,55,26,29.63,29.54,17,3,17,0.00
2013-11-17,56.8,40.6,22.3,30.1,18.8,7.2,57,42,25,30.31,29.60,33,8,33,0.04
2013-11-18,66.4,37.4,17.1,28.2,16.3,8.2,71,46,23,30.37,30.22,10,2,10,0.00
2013-11-19,62.1,41.2,23.5,33.2,20.4,9.9,58,44,33,30.22,29.93,17,4,17,0.00
2013-11-20,78.3,46.4,31.3,37.1,26.0,15.7,70,48,22,30.22,29.87,16,3,16,0.00
2013-11-21,31.3,18.4,12.0,20.3,8.8,3.5,79,66,57,30.84,30.22,18,8,18,0.00
2013-11-22,44.1,19.3,7.3,22.7,6.3,-3.0,65,57,39,30.87,30.75,10,3,10,0.00
2013-11-23,47.5,22.1,10.9,22.6,8.5,1.5,67,56,38,30.99,30.73,10,3,10,0.00
2013-11-24,43.2,27.0,13.8,25.4,15.9,4.5,79,63,49,30.75,30.25,20,5,20,0.00
2013-11-25,52.5,31.0,16.9,29.0,16.5,9.2,83,59,28,30.49,30.25,14,3,14,0.00
2013-11-26,43.3,25.8,11.3,19.7,11.2,1.3,65,54,37,30.64,30.49,13,3,13,0.00
2013-11-27,68.9,31.1,10.4,34.3,15.3,0.6,71,54,27,30.58,30.16,10,1,10,0.00
2013-11-28,47.5,28.0,19.2,27.1,17.1,12.3,75,64,41,30.55,30.34,10,2,10,0.00
2013-11-29,37.6,29.8,17.4,26.0,20.4,12.4,81,68,60,30.55,30.37,11,6,11,0.00
2013-11-30,36.5,36.5,36.5,24.7,24.7,24.7,62,62,62,30.37,30.37,7,7,7,0.00
2013-12-1,36.5,36.5,36.5,24.7,24.7,24.7,62,62,62,30.37,30.37,7,7,7,0.00
2013-12-2,36.5,36.5,36.5,24.7,24.7,24.7,62,62,62,30.37,30.37,7,7,7,0.00
2013-12-3,36.5,36.5,36.5,24.7,24.7,24.7,62,62,62,30.37,30.37,7,7,7,0.00
2013-12-4,36.5,16.2,5.5,24.7,1.5,-11.7,64,52,42,30.40,30.02,23,10,23,0.00
2013-12-5,28.0,7.2,-1.8,5.1,-11.6,-20.4,46,41,36,30.55,30.37,12,4,12,0.00
2013-12-6,23.7,3.5,-5.1,1.6,-16.8,-25.3,45,37,35,30.73,30.55,9,3,9,0.00
2013-12-7,10.0,2.7,-6.9,-11.7,-18.3,-26.9,36,36,36,30.73,30.37,16,5,16,0.00
2013-12-8,16.3,8.2,-5.1,4.1,-8.0,-16.1,60,48,36,30.37,30.10,12,3,12,0.00
2013-12-9,33.6,11.0,-7.1,11.5,-4.1,-18.0,58,51,36,30.43,30.22,12,3,12,0.00
2013-12-10,49.1,26.5,7.5,22.8,9.8,-5.3,69,50,34,30.49,30.16,14,4,14,0.00
2013-12-11,40.6,20.0,4.8,18.2,8.0,-3.4,71,60,39,30.67,30.46,11,3,14,0.00
2013-12-12,65.5,26.4,7.5,29.0,10.2,-1.0,73,54,26,30.49,30.16,9,2,9,0.00
2013-12-13,57.9,26.4,12.0,30.3,12.5,3.3,71,57,31,30.28,29.96,12,2,12,0.00
2013-12-14,54.5,28.9,13.5,28.4,15.4,7.9,79,59,32,30.37,30.25,11,3,12,0.00
2013-12-15,62.8,40.8,28.4,28.6,20.0,12.9,55,44,27,30.25,30.10,19,4,19,0.00
2013-12-16,65.7,37.2,21.7,33.4,17.5,8.2,67,47,25,30.34,30.14,13,2,13,0.00
2013-12-17,60.3,34.6,17.8,30.7,16.6,8.4,70,49,28,30.49,30.14,11,2,11,0.00
2013-12-18,75.6,40.5,22.8,33.1,17.0,8.6,63,42,16,30.14,29.84,12,2,12,0.00
2013-12-19,32.5,24.1,10.4,21.8,14.2,1.9,76,66,52,30.16,29.87,16,6,16,0.00
2013-12-20,33.8,16.0,9.7,14.2,3.7,-2.9,68,58,43,30.16,29.96,17,4,17,0.00
2013-12-21,49.5,21.3,0.0,25.4,6.0,-6.1,65,52,37,30.08,29.84,11,2,11,0.00
2013-12-22,44.8,20.8,7.5,21.9,8.1,-1.8,72,59,39,30.49,30.08,12,3,12,0.00
2013-12-23,23.0,11.9,1.9,7.5,0.7,-6.5,67,60,46,30.61,30.37,8,3,12,0.00
2013-12-24,43.2,24.5,5.5,31.6,15.2,-5.4,85,68,51,30.40,30.14,15,4,15,0.05
2013-12-25,50.0,27.9,16.0,26.6,17.4,8.5,87,68,37,30.49,30.37,14,3,14,0.00
2013-12-26,62.2,33.0,16.5,29.7,16.5,8.7,73,53,27,30.40,30.28,13,3,13,0.00
2013-12-27,67.8,33.7,16.2,35.3,17.6,9.0,74,55,26,30.40,30.19,10,1,10,0.00
2013-12-28,57.9,29.1,12.7,30.8,15.2,-0.2,75,58,30,30.40,29.96,24,5,24,0.00
2013-12-29,38.7,15.8,3.2,15.8,0.1,-9.0,56,50,38,30.52,30.16,17,4,18,0.00
2013-12-30,52.0,29.9,17.1,26.4,13.3,3.9,69,51,32,30.31,30.10,23,4,23,0.00
2013-12-31,61.9,31.1,15.3,29.3,15.7,7.6,74,56,27,30.31,30.08,15,2,15,0.00
2014-1-1,29.1,22.4,15.4,16.1,11.1,5.4,69,61,54,30.46,30.10,11,4,11,0.00
2014-1-2,52.0,26.2,11.7,29.1,15.7,5.9,79,66,37,30.46,30.28,10,2,10,0.00